Cape Cod CGAS, MA

9:00 AM EST on November 24, 2017 (GMT -0500)
Cape Cod Coast Guard Air Station

Weather History for KFMH - July, 2013

Change the Weather History Date:

Tuesday, July 23, 2013

  Actual Average Record
Temperature  
Mean Temperature 76 °F -  
Max Temperature 82 °F 76 °F 89 °F (2016)
Min Temperature 69 °F 60 °F 57 °F (1996)
Cooling Degree Days 10    
Growing Degree Days 26 (Base 50)    
Moisture  
Dew Point 73 °F    
Average Humidity 92    
Maximum Humidity 100    
Minimum Humidity 74    
Precipitation  
Precipitation 0.00 in - - ()
Sea Level Pressure  
Sea Level Pressure 29.68 in    
Wind  
Wind Speed 11 mph (SSW)    
Max Wind Speed 23 mph    
Max Gust Speed 33 mph    
Visibility 6 miles    
Events Fog , Thunderstorm    
Averages and records for this station are not official NWS values.
T = Trace of Precipitation, MM = Missing Value Source: NWS Daily Summary

Daily Weather History Graph

Daily Weather History Graph

Search for Another Location

Airport or City:

Trip Planner

Search our weather history database for the weather conditions in past years. The results will help you decide how hot, cold, wet, or windy it might be!

Date:

Astronomy

Jul. 23, 2013 Rise Set
Actual Time 5:27 AM EDT 8:08 PM EDT
Civil Twilight 4:55 AM EDT 8:40 PM EDT
Nautical Twilight 4:15 AM EDT 9:21 PM EDT
Astronomical Twilight 3:29 AM EDT 10:06 PM EDT
Moon 8:32 PM EDT (7/23) 6:34 AM EDT (7/23)
Length of Visible Light 15h 45m
Length of Day
14h 40m
Full, 99% of the Moon is Illuminated
Jul 23
Full
Jul 29
Last Quarter
Aug 6
New
Aug 14
First Quarter
Aug 20
Full

Hourly Weather History & Observations

Time (EDT) Temp. Heat Index Dew Point Humidity Pressure Visibility Wind Dir Wind Speed Gust Speed Precip Events Conditions
12:15 AM 71.6 °F - 71.6 °F 100% 29.88 in 0.8 mi SE 6.9 mph - N/A   Overcast
12:35 AM 71.6 °F - 71.6 °F 100% 29.88 in 4.0 mi SE 8.1 mph - N/A   Overcast
12:55 AM 71.6 °F - 71.6 °F 100% 29.87 in 5.0 mi SE 8.1 mph - N/A   Overcast
1:15 AM 71.6 °F - 71.6 °F 100% 29.86 in 3.0 mi SE 5.8 mph - N/A   Overcast
1:35 AM 71.6 °F - 71.6 °F 100% 29.84 in 2.0 mi SE 6.9 mph - N/A   Overcast
1:55 AM 71.6 °F - 71.6 °F 100% 29.84 in 3.0 mi SE 8.1 mph - N/A   Overcast
2:15 AM 71.6 °F - 71.6 °F 100% 29.82 in 2.0 mi SE 9.2 mph - N/A   Overcast
2:35 AM 71.6 °F - 71.6 °F 100% 29.82 in 0.8 mi SE 9.2 mph - N/A   Overcast
2:55 AM 71.6 °F - 71.6 °F 100% 29.81 in 0.5 mi SSE 8.1 mph - N/A Fog Fog
3:15 AM 71.6 °F - 71.6 °F 100% 29.80 in 0.5 mi SE 5.8 mph - N/A Fog Fog
3:35 AM 71.6 °F - 71.6 °F 100% 29.79 in 0.8 mi ESE 5.8 mph - N/A   Overcast
3:55 AM 71.6 °F - 71.6 °F 100% 29.78 in 1.0 mi ESE 4.6 mph - N/A   Overcast
4:15 AM 71.6 °F - 71.6 °F 100% 29.78 in 0.5 mi SE 5.8 mph - N/A Fog Fog
4:35 AM 73.4 °F - 73.4 °F 100% 29.77 in 8.0 mi SSE 5.8 mph - N/A   Overcast
4:55 AM 73.4 °F - 73.4 °F 100% 29.77 in 2.0 mi South 9.2 mph - N/A   Overcast
5:15 AM 73.4 °F - 73.4 °F 100% 29.76 in 0.5 mi SSE 6.9 mph - N/A Fog Fog
5:35 AM 73.4 °F - 73.4 °F 100% 29.76 in 0.5 mi SSE 5.8 mph - N/A Fog Fog
5:55 AM 73.4 °F - 73.4 °F 100% 29.75 in 0.2 mi SSE 6.9 mph - N/A Fog Fog
6:15 AM 73.4 °F - 73.4 °F 100% 29.75 in 9.0 mi South 8.1 mph - N/A   Overcast
6:35 AM 73.4 °F - 73.4 °F 100% 29.75 in 8.0 mi South 8.1 mph - N/A   Overcast
6:55 AM 73.4 °F - 73.4 °F 100% 29.75 in 4.0 mi South 8.1 mph - N/A   Overcast
7:15 AM 73.4 °F - 73.4 °F 100% 29.74 in 5.0 mi South 9.2 mph - N/A   Overcast
7:35 AM 73.4 °F - 73.4 °F 100% 29.73 in 1.0 mi South 6.9 mph - N/A   Overcast
7:55 AM 75.2 °F - 75.2 °F 100% 29.72 in 5.0 mi South 10.4 mph - N/A   Overcast
8:15 AM 75.2 °F - 75.2 °F 100% 29.71 in 8.0 mi South 9.2 mph - N/A   Overcast
8:35 AM 75.2 °F - 75.2 °F 100% 29.71 in 10.0 mi South 12.7 mph - N/A   Overcast
8:55 AM 75.2 °F - 75.2 °F 100% 29.70 in 10.0 mi South 10.4 mph - N/A   Overcast
9:15 AM 75.2 °F - 75.2 °F 100% 29.69 in 10.0 mi South 9.2 mph - N/A   Overcast
9:35 AM 77.0 °F - 75.2 °F 94% 29.68 in 10.0 mi South 9.2 mph - N/A   Overcast
9:55 AM 77.0 °F - 75.2 °F 94% 29.68 in 10.0 mi SSW 12.7 mph - N/A   Overcast
10:15 AM 77.0 °F - 73.4 °F 89% 29.68 in 10.0 mi SSW 11.5 mph - N/A   Overcast
10:35 AM 77.0 °F - 73.4 °F 89% 29.67 in 10.0 mi SSW 12.7 mph - N/A   Mostly Cloudy
10:55 AM 77.0 °F - 73.4 °F 89% 29.67 in 10.0 mi SSW 15.0 mph - N/A   Mostly Cloudy
11:15 AM 80.6 °F 85.4 °F 73.4 °F 79% 29.67 in 10.0 mi SSW 13.8 mph - N/A   Mostly Cloudy
11:35 AM 82.4 °F 88.2 °F 73.4 °F 74% 29.66 in 10.0 mi SSW 16.1 mph 21.9 mph N/A   Overcast
11:55 AM 82.4 °F 88.2 °F 73.4 °F 74% 29.66 in 10.0 mi SSW 18.4 mph - N/A   Mostly Cloudy
12:15 PM 82.4 °F 88.2 °F 73.4 °F 74% 29.64 in 10.0 mi SW 17.3 mph 21.9 mph N/A   Mostly Cloudy
12:35 PM 80.6 °F 85.4 °F 73.4 °F 79% 29.64 in 10.0 mi WSW 17.3 mph 26.5 mph N/A   Mostly Cloudy
12:55 PM 82.4 °F 88.2 °F 73.4 °F 74% 29.63 in 10.0 mi SW 18.4 mph 23.0 mph N/A   Overcast
1:15 PM 82.4 °F 88.2 °F 73.4 °F 74% 29.63 in 10.0 mi SW 21.9 mph 27.6 mph N/A   Mostly Cloudy
1:35 PM 82.4 °F 88.2 °F 73.4 °F 74% 29.62 in 10.0 mi SW 18.4 mph 31.1 mph N/A   Mostly Cloudy
1:55 PM 82.4 °F 89.5 °F 75.2 °F 79% 29.61 in 10.0 mi SSW 19.6 mph 26.5 mph N/A   Overcast
2:15 PM 82.4 °F 88.2 °F 73.4 °F 74% 29.61 in 10.0 mi WSW 21.9 mph 27.6 mph N/A   Overcast
2:35 PM 82.4 °F 89.5 °F 75.2 °F 79% 29.61 in 10.0 mi SW 18.4 mph 28.8 mph N/A   Overcast
2:55 PM 80.6 °F 85.4 °F 73.4 °F 79% 29.60 in 10.0 mi SW 17.3 mph 25.3 mph N/A   Overcast
3:15 PM 82.4 °F 89.5 °F 75.2 °F 79% 29.60 in 10.0 mi SW 21.9 mph 32.2 mph N/A   Overcast
3:35 PM 80.6 °F 85.4 °F 73.4 °F 79% 29.60 in 10.0 mi SW 21.9 mph 29.9 mph N/A   Overcast
4:15 PM 80.6 °F 85.4 °F 73.4 °F 79% 29.60 in 10.0 mi SW 18.4 mph 24.2 mph N/A   Overcast
4:35 PM 80.6 °F 85.4 °F 73.4 °F 79% 29.59 in 10.0 mi SW 20.7 mph 31.1 mph N/A   Overcast
4:55 PM 80.6 °F 84.6 °F 71.6 °F 74% 29.59 in 10.0 mi SW 21.9 mph 31.1 mph N/A   Mostly Cloudy
5:15 PM 78.8 °F - 73.4 °F 83% 29.59 in 10.0 mi WSW 23.0 mph 32.2 mph N/A   Mostly Cloudy
5:35 PM 77.0 °F - 73.4 °F 89% 29.58 in 10.0 mi WSW 18.4 mph 27.6 mph N/A   Mostly Cloudy
5:55 PM 77.0 °F - 73.4 °F 89% 29.58 in 10.0 mi WSW 18.4 mph 33.4 mph N/A   Mostly Cloudy
6:15 PM 77.0 °F - 73.4 °F 89% 29.58 in 9.0 mi WSW 15.0 mph 23.0 mph N/A Thunderstorm Mostly Cloudy
6:35 PM 77.0 °F - 73.4 °F 89% 29.59 in 10.0 mi WSW 16.1 mph 23.0 mph N/A   Mostly Cloudy
6:55 PM 75.2 °F - 73.4 °F 94% 29.60 in 9.0 mi WSW 16.1 mph 21.9 mph N/A   Overcast
7:15 PM 75.2 °F - 73.4 °F 94% 29.60 in 8.0 mi WSW 15.0 mph 23.0 mph N/A   Overcast
7:35 PM 75.2 °F - 73.4 °F 94% 29.61 in 7.0 mi WSW 15.0 mph 20.7 mph N/A   Overcast
7:55 PM 75.2 °F - 73.4 °F 94% 29.61 in 5.0 mi WSW 16.1 mph - N/A   Overcast
8:15 PM 75.2 °F - 73.4 °F 94% 29.61 in 6.0 mi WSW 9.2 mph 23.0 mph N/A   Overcast
8:35 PM 75.2 °F - 73.4 °F 94% 29.61 in 8.0 mi WSW 12.7 mph 17.3 mph N/A   Overcast
8:55 PM 75.2 °F - 73.4 °F 94% 29.61 in 8.0 mi WSW 12.7 mph - N/A   Overcast
9:15 PM 75.2 °F - 73.4 °F 94% 29.61 in 6.0 mi WSW 11.5 mph - N/A   Overcast
9:35 PM 75.2 °F - 73.4 °F 94% 29.61 in 5.0 mi WSW 11.5 mph 19.6 mph N/A   Overcast
9:55 PM 75.2 °F - 73.4 °F 94% 29.62 in 5.0 mi WSW 11.5 mph - N/A   Overcast
10:15 PM 75.2 °F - 73.4 °F 94% 29.62 in 5.0 mi WSW 12.7 mph - N/A   Overcast
10:35 PM 75.2 °F - 73.4 °F 94% 29.62 in 5.0 mi SW 10.4 mph - N/A   Overcast
10:55 PM 75.2 °F - 73.4 °F 94% 29.61 in 5.0 mi WSW 10.4 mph - N/A   Overcast
11:15 PM 75.2 °F - 73.4 °F 94% 29.62 in 6.0 mi WSW 9.2 mph - N/A   Overcast
11:35 PM 75.2 °F - 73.4 °F 94% 29.62 in 5.0 mi WSW 9.2 mph - N/A   Overcast
11:55 PM 75.2 °F - 73.4 °F 94% 29.62 in 5.0 mi SW 10.4 mph - N/A   Overcast